[keps] orb08087.amsat
Ray Hoad
r.hoad at att.net
Thu Mar 27 18:26:47 PST 2008
SB KEPS @ AMSAT $ORB08087.O
Orbital Elements 08087.OSCAR
HR AMSAT ORBITAL ELEMENTS FOR OSCAR SATELLITES
FROM WA5QGD FORT WORTH,TX March 27, 2008
Send Subscribe/unsubscribe to KEPS at
http://www.amsat.org/mailman/listinfo/keps
BID: ORB08087.O
TO ALL RADIO AMATEURS BT
Satellite: AO-07
Catalog number: 07530
Epoch time: 08086.69394033
Element set: 0137
Inclination: 101.4767 deg
RA of node: 120.9244 deg
Eccentricity: 0.0012083
Arg of perigee: 064.3556 deg
Mean anomaly: 295.8762 deg
Mean motion: 12.53573699 rev/day
Decay rate: -2.7e-07 rev/day^2
Epoch rev: 52664
Checksum: 316
Satellite: AO-10
Catalog number: 14129
Epoch time: 08086.68786823
Element set: 487
Inclination: 025.9253 deg
RA of node: 223.5194 deg
Eccentricity: 0.6014113
Arg of perigee: 110.1621 deg
Mean anomaly: 321.5334 deg
Mean motion: 02.05869097 rev/day
Decay rate: -4.0e-08 rev/day^2
Epoch rev: 18640
Checksum: 290
Satellite: UO-11
Catalog number: 14781
Epoch time: 08086.88607234
Element set: 0630
Inclination: 098.1626 deg
RA of node: 119.6533 deg
Eccentricity: 0.0008660
Arg of perigee: 345.1376 deg
Mean anomaly: 014.9533 deg
Mean motion: 14.79627778 rev/day
Decay rate: 1.15e-06 rev/day^2
Epoch rev: 29168
Checksum: 327
Satellite: RS-15
Catalog number: 23439
Epoch time: 08086.88519857
Element set: 0165
Inclination: 064.8152 deg
RA of node: 268.1378 deg
Eccentricity: 0.0149898
Arg of perigee: 138.4589 deg
Mean anomaly: 222.7839 deg
Mean motion: 11.27552050 rev/day
Decay rate: -3.9e-07 rev/day^2
Epoch rev: 54568
Checksum: 363
Satellite: FO-29
Catalog number: 24278
Epoch time: 08086.96136206
Element set: 0749
Inclination: 098.5875 deg
RA of node: 014.0057 deg
Eccentricity: 0.0351354
Arg of perigee: 068.4537 deg
Mean anomaly: 295.3667 deg
Mean motion: 13.52936734 rev/day
Decay rate: 4.1e-07 rev/day^2
Epoch rev: 57327
Checksum: 343
Satellite: SO-33
Catalog number: 25509
Epoch time: 08086.29069224
Element set: 0162
Inclination: 031.4303 deg
RA of node: 065.0571 deg
Eccentricity: 0.0354711
Arg of perigee: 022.4231 deg
Mean anomaly: 339.1493 deg
Mean motion: 14.28205915 rev/day
Decay rate: 4.03e-06 rev/day^2
Epoch rev: 49175
Checksum: 277
Satellite: AO-40
Catalog number: 26609
Epoch time: 08086.00615633
Element set: 29
Inclination: 007.4975 deg
RA of node: 091.1418 deg
Eccentricity: 0.7918516
Arg of perigee: 064.9376 deg
Mean anomaly: 354.6858 deg
Mean motion: 01.25584116 rev/day
Decay rate: -2.99e-06 rev/day^2
Epoch rev: 3399
Checksum: 339
Satellite: VO-52
Catalog number: 28650
Epoch time: 08087.74760167
Element set: 890
Inclination: 097.7954 deg
RA of node: 156.5690 deg
Eccentricity: 0.0028015
Arg of perigee: 048.5116 deg
Mean anomaly: 311.8530 deg
Mean motion: 14.81437450 rev/day
Decay rate: 5.3e-07 rev/day^2
Epoch rev: 15654
Checksum: 318
Satellite: PO-63
Catalog number: 29712
Epoch time: 08087.22205042
Element set: 305
Inclination: 097.8822 deg
RA of node: 146.9241 deg
Eccentricity: 0.0013127
Arg of perigee: 289.9451 deg
Mean anomaly: 070.0346 deg
Mean motion: 14.80070825 rev/day
Decay rate: 5.82e-06 rev/day^2
Epoch rev: 6534
Checksum: 291
/EX
SB KEPS @ AMSAT $ORB08087.D
Orbital Elements 08087.MICROS
HR AMSAT ORBITAL ELEMENTS FOR THE MICROSATS
FROM WA5QGD FORT WORTH,TX March 27, 2008
Send Subscribe/unsubscribe to KEPS at
http://www.amsat.org/mailman/listinfo/keps
BID: ORB08087.D
TO ALL RADIO AMATEURS BT
Satellite: AO-16
Catalog number: 20439
Epoch time: 08086.74880638
Element set: 282
Inclination: 098.2241 deg
RA of node: 071.0517 deg
Eccentricity: 0.0011986
Arg of perigee: 063.2278 deg
Mean anomaly: 297.0136 deg
Mean motion: 14.31787994 rev/day
Decay rate: -1.0e-08 rev/day^2
Epoch rev: 94912
Checksum: 323
Satellite: LO-19
Catalog number: 20442
Epoch time: 08086.94954689
Element set: 0210
Inclination: 098.1976 deg
RA of node: 080.0183 deg
Eccentricity: 0.0012775
Arg of perigee: 062.3217 deg
Mean anomaly: 297.9282 deg
Mean motion: 14.32026627 rev/day
Decay rate: -5.7e-07 rev/day^2
Epoch rev: 94930
Checksum: 325
Satellite: AO-27
Catalog number: 22825
Epoch time: 08086.94188439
Element set: 0932
Inclination: 098.3749 deg
RA of node: 050.0843 deg
Eccentricity: 0.0008802
Arg of perigee: 138.3261 deg
Mean anomaly: 221.8590 deg
Mean motion: 14.29233163 rev/day
Decay rate: -1.75e-06 rev/day^2
Epoch rev: 75602
Checksum: 317
Satellite: IO-26
Catalog number: 22826
Epoch time: 08086.80022328
Element set: 633
Inclination: 098.3681 deg
RA of node: 050.8961 deg
Eccentricity: 0.0009443
Arg of perigee: 136.2421 deg
Mean anomaly: 223.9505 deg
Mean motion: 14.29481830 rev/day
Decay rate: -6.0e-08 rev/day^2
Epoch rev: 75609
Checksum: 302
Satellite: PO-28
Catalog number: 22829
Epoch time: 08086.89707287
Element set: 0907
Inclination: 098.3567 deg
RA of node: 052.1084 deg
Eccentricity: 0.0010575
Arg of perigee: 109.8541 deg
Mean anomaly: 250.3775 deg
Mean motion: 14.30183930 rev/day
Decay rate: 7.0e-08 rev/day^2
Epoch rev: 75636
Checksum: 330
Satellite: GO-32
Catalog number: 25397
Epoch time: 08087.76518834
Element set: 560
Inclination: 098.3740 deg
RA of node: 126.9143 deg
Eccentricity: 0.0002088
Arg of perigee: 107.2719 deg
Mean anomaly: 252.8682 deg
Mean motion: 14.23141037 rev/day
Decay rate: 6.4e-07 rev/day^2
Epoch rev: 50463
Checksum: 307
Satellite: MO-46
Catalog number: 26548
Epoch time: 08086.91132095
Element set: 0058
Inclination: 064.5595 deg
RA of node: 024.8574 deg
Eccentricity: 0.0020623
Arg of perigee: 335.5653 deg
Mean anomaly: 024.4448 deg
Mean motion: 14.83239367 rev/day
Decay rate: -5.4e-07 rev/day^2
Epoch rev: 40561
Checksum: 316
Satellite: NO-44
Catalog number: 26931
Epoch time: 08087.49738642
Element set: 839
Inclination: 067.0519 deg
RA of node: 135.1001 deg
Eccentricity: 0.0005454
Arg of perigee: 275.6827 deg
Mean anomaly: 084.3647 deg
Mean motion: 14.29517387 rev/day
Decay rate: 1.87e-06 rev/day^2
Epoch rev: 33873
Checksum: 338
Satellite: SO-50
Catalog number: 27607
Epoch time: 08086.90073036
Element set: 0564
Inclination: 064.5600 deg
RA of node: 303.5399 deg
Eccentricity: 0.0082509
Arg of perigee: 295.7999 deg
Mean anomaly: 063.4588 deg
Mean motion: 14.71338811 rev/day
Decay rate: 3.2e-07 rev/day^2
Epoch rev: 28286
Checksum: 332
Satellite: CO-55
Catalog number: 27844
Epoch time: 08086.60678270
Element set: 267
Inclination: 098.7180 deg
RA of node: 096.0132 deg
Eccentricity: 0.0010191
Arg of perigee: 359.8749 deg
Mean anomaly: 000.2416 deg
Mean motion: 14.20567881 rev/day
Decay rate: 5.2e-07 rev/day^2
Epoch rev: 24571
Checksum: 311
Satellite: CO-57
Catalog number: 27848
Epoch time: 08086.59380015
Element set: 219
Inclination: 098.7192 deg
RA of node: 095.1145 deg
Eccentricity: 0.0009933
Arg of perigee: 003.2772 deg
Mean anomaly: 356.8459 deg
Mean motion: 14.20378783 rev/day
Decay rate: 2.7e-07 rev/day^2
Epoch rev: 24568
Checksum: 340
Satellite: AO-51
Catalog number: 28375
Epoch time: 08086.67423562
Element set: 62
Inclination: 098.0802 deg
RA of node: 115.8559 deg
Eccentricity: 0.0085205
Arg of perigee: 043.2162 deg
Mean anomaly: 317.5672 deg
Mean motion: 14.40601063 rev/day
Decay rate: 1.3e-07 rev/day^2
Epoch rev: 19652
Checksum: 289
Satellite: CO-56
Catalog number: 28941
Epoch time: 08087.79098419
Element set: 943
Inclination: 098.1013 deg
RA of node: 187.6791 deg
Eccentricity: 0.0180019
Arg of perigee: 336.3550 deg
Mean anomaly: 022.9795 deg
Mean motion: 15.52589332 rev/day
Decay rate: 3.4750e-04 rev/day^2
Epoch rev: 11739
Checksum: 351
Satellite: CP4
Catalog number: 31122
Epoch time: 08087.19568073
Element set: 298
Inclination: 098.0474 deg
RA of node: 155.8056 deg
Eccentricity: 0.0084988
Arg of perigee: 222.6100 deg
Mean anomaly: 136.8488 deg
Mean motion: 14.55102232 rev/day
Decay rate: 5.50e-06 rev/day^2
Epoch rev: 5015
Checksum: 299
Satellite: CP3
Catalog number: 31128
Epoch time: 08087.39621400
Element set: 291
Inclination: 098.0463 deg
RA of node: 154.2664 deg
Eccentricity: 0.0102105
Arg of perigee: 227.1398 deg
Mean anomaly: 132.1196 deg
Mean motion: 14.51927084 rev/day
Decay rate: -4.8e-07 rev/day^2
Epoch rev: 5006
Checksum: 275
Satellite: LIBERT
Catalog number: 31129
Epoch time: 08087.16863407
Element set: 849
Inclination: 098.0454 deg
RA of node: 154.0818 deg
Eccentricity: 0.0101841
Arg of perigee: 228.0792 deg
Mean anomaly: 131.1658 deg
Mean motion: 14.52015262 rev/day
Decay rate: 3.37e-06 rev/day^2
Epoch rev: 5001
Checksum: 278
/EX
SB KEPS @ AMSAT $ORB08087.W
Orbital Elements 08087.WEATHER
HR AMSAT ORBITAL ELEMENTS FOR WEATHER SATELLITES
FROM WA5QGD FORT WORTH,TX March 27, 2008
Send Subscribe/unsubscribe to KEPS at
http://www.amsat.org/mailman/listinfo/keps
BID: ORB08087.W
TO ALL RADIO AMATEURS BT
Satellite: NOAA-10
Catalog number: 16969
Epoch time: 08087.06843563
Element set: 59
Inclination: 098.7288 deg
RA of node: 109.1787 deg
Eccentricity: 0.0013203
Arg of perigee: 062.4793 deg
Mean anomaly: 297.7718 deg
Mean motion: 14.27354496 rev/day
Decay rate: 3.2e-07 rev/day^2
Epoch rev: 11972
Checksum: 341
Satellite: NOAA-11
Catalog number: 19531
Epoch time: 08087.13542105
Element set: 96
Inclination: 098.7960 deg
RA of node: 177.6093 deg
Eccentricity: 0.0010870
Arg of perigee: 304.3300 deg
Mean anomaly: 055.6829 deg
Mean motion: 14.14869307 rev/day
Decay rate: 8.5e-07 rev/day^2
Epoch rev: 630
Checksum: 292
Satellite: NOAA-12
Catalog number: 21263
Epoch time: 08087.08075285
Element set: 604
Inclination: 098.7672 deg
RA of node: 089.0407 deg
Eccentricity: 0.0012575
Arg of perigee: 008.7460 deg
Mean anomaly: 351.3925 deg
Mean motion: 14.25522943 rev/day
Decay rate: 3.4e-07 rev/day^2
Epoch rev: 87669
Checksum: 316
Satellite: MET-3/5
Catalog number: 21655
Epoch time: 08086.91835178
Element set: 0411
Inclination: 082.5590 deg
RA of node: 162.5019 deg
Eccentricity: 0.0012754
Arg of perigee: 214.3209 deg
Mean anomaly: 145.7091 deg
Mean motion: 13.17015304 rev/day
Decay rate: 5.1e-07 rev/day^2
Epoch rev: 79875
Checksum: 295
